Weather History for Fremont, NE

Change the Weather History Date:

Saturday, November 9, 2013

  Actual Average Record
Temperature  
Mean Temperature 46 °F -  
Max Temperature 60 °F 50 °F 71 °F (1999)
Min Temperature 33 °F 31 °F 17 °F (1981)
Degree Days  
Heating Degree Days 18    
Moisture  
Dew Point 35 °F    
Average Humidity 70    
Maximum Humidity 100    
Minimum Humidity 41    
Precipitation  
Precipitation 0.00 in - - ()
Sea Level Pressure  
Sea Level Pressure 30.13 in    
Wind  
Wind Speed 8 mph (WNW)    
Max Wind Speed 15 mph    
Max Gust Speed 20 mph    
Visibility 10 miles    
Events      
Averages and records for this station are not official NWS values.
T = Trace of Precipitation, MM = Missing Value Source: NWS Daily Summary

Daily Weather History Graph

Daily Weather History Graph

Search for Another Location

Airport:

Trip Planner

Search our weather history database for the weather conditions in past years. The results will help you decide how hot, cold, wet, or windy it might be!

Date:

Astronomy

Nov. 09, 2013 Rise Set
Actual Time 7:07 AM CST 5:11 PM CST
Civil Twilight 6:38 AM CST 5:40 PM CST
Nautical Twilight 6:05 AM CST 6:14 PM CST
Astronomical Twilight 5:32 AM CST 6:46 PM CST
Moon 12:44 PM CST (11/9) 11:44 PM CST (11/9)
Length of Visible Light 11h 02m
Length of Day
10h 03m
Waxing Crescent, 44% of the Moon is Illuminated
Nov 9
Waxing Crescent
Nov 9
First Quarter
Nov 17
Full
Nov 25
Last Quarter
Dec 2
New

Hourly Weather History & Observations

Time (CST) Temp. Windchill Dew Point Humidity Pressure Visibility Wind Dir Wind Speed Gust Speed Precip Events Conditions
12:15 AM 37.8 °F 34.2 °F 36.3 °F 95% 29.92 in 10.0 mi WSW 4.6 mph - N/A   Clear
12:35 AM 34.2 °F 29.0 °F 34.0 °F 99% 29.92 in 10.0 mi West 5.8 mph - N/A   Clear
12:55 AM 34.3 °F 30.2 °F 34.3 °F 100% 29.93 in 10.0 mi West 4.6 mph - N/A   Clear
1:15 AM 33.4 °F 27.3 °F 33.1 °F 99% 29.93 in 10.0 mi WNW 6.9 mph - N/A   Clear
1:35 AM 34.2 °F 29.0 °F 34.0 °F 99% 29.94 in 10.0 mi West 5.8 mph - N/A   Clear
1:55 AM 35.2 °F 32.4 °F 34.5 °F 97% 29.94 in 10.0 mi WSW 3.5 mph - N/A   Clear
2:15 AM 36.3 °F 31.6 °F 33.8 °F 91% 29.94 in 10.0 mi West 5.8 mph - N/A   Clear
2:35 AM 34.5 °F 27.9 °F 33.3 °F 95% 29.96 in 10.0 mi West 8.1 mph - N/A   Clear
2:55 AM 34.9 °F 27.7 °F 32.7 °F 92% 29.96 in 10.0 mi West 9.2 mph - N/A   Clear
3:15 AM 34.5 °F 28.6 °F 33.1 °F 94% 29.96 in 10.0 mi West 6.9 mph - N/A   Clear
3:35 AM 34.5 °F 28.6 °F 33.1 °F 94% 29.97 in 10.0 mi West 6.9 mph - N/A   Clear
3:55 AM 35.2 °F 28.1 °F 33.3 °F 92% 29.97 in 10.0 mi West 9.2 mph - N/A   Clear
4:15 AM 36.1 °F 29.9 °F 33.8 °F 91% 29.98 in 10.0 mi West 8.1 mph - N/A   Clear
4:35 AM 40.3 °F 34.9 °F 34.2 °F 79% 29.99 in 10.0 mi West 8.1 mph - N/A   Clear
4:55 AM 35.2 °F 27.6 °F 33.1 °F 92% 30.00 in 10.0 mi West 10.4 mph - N/A   Clear
5:15 AM 42.8 °F 36.2 °F 34.7 °F 73% 30.00 in 10.0 mi West 12.7 mph - N/A   Clear
5:35 AM 40.8 °F 33.7 °F 34.3 °F 78% 30.01 in 10.0 mi West 12.7 mph - N/A   Clear
5:55 AM 40.1 °F 32.7 °F 34.0 °F 79% 30.02 in 10.0 mi West 12.7 mph - N/A   Clear
6:15 AM 39.4 °F 31.8 °F 33.8 °F 80% 30.03 in 10.0 mi West 12.7 mph - N/A   Clear
6:35 AM 36.5 °F 29.7 °F 33.3 °F 88% 30.04 in 10.0 mi WNW 9.2 mph - N/A   Clear
6:55 AM 35.8 °F 28.8 °F 33.1 °F 90% 30.05 in 10.0 mi West 9.2 mph - N/A   Clear
7:15 AM 37.4 °F 30.8 °F 33.3 °F 85% 30.05 in 10.0 mi West 9.2 mph - N/A   Clear
7:35 AM 37.9 °F 33.5 °F 33.1 °F 83% 30.07 in 10.0 mi West 5.8 mph - N/A   Clear
7:55 AM 42.3 °F 37.9 °F 34.0 °F 72% 30.08 in 10.0 mi West 6.9 mph - N/A   Clear
8:15 AM 42.6 °F 36.8 °F 34.9 °F 74% 30.10 in 10.0 mi West 10.4 mph - N/A   Clear
8:35 AM 44.4 °F 39.0 °F 34.7 °F 69% 30.11 in 10.0 mi West 10.4 mph - N/A   Clear
8:55 AM 45.1 °F 40.3 °F 36.1 °F 71% 30.11 in 10.0 mi West 9.2 mph - N/A   Clear
9:15 AM 46.2 °F 40.5 °F 36.7 °F 69% 30.12 in 10.0 mi West 12.7 mph - N/A   Clear
9:35 AM 47.3 °F - 38.1 °F 70% 30.12 in 10.0 mi WNW 10.4 mph - N/A   Clear
9:55 AM 50.5 °F - 39.4 °F 66% 30.13 in 10.0 mi WNW 10.4 mph - N/A   Clear
10:15 AM 52.9 °F - 38.1 °F 57% 30.14 in 10.0 mi WNW 12.7 mph 18.4 mph N/A   Clear
10:35 AM 53.8 °F - 37.0 °F 53% 30.15 in 10.0 mi WNW 13.8 mph - N/A   Clear
10:55 AM 55.0 °F - 36.9 °F 50% 30.16 in 10.0 mi WNW 12.7 mph - N/A   Clear
11:15 AM 56.1 °F - 36.1 °F 47% 30.16 in 10.0 mi WNW 12.7 mph - N/A   Clear
11:35 AM 57.0 °F - 35.4 °F 44% 30.16 in 10.0 mi WNW 12.7 mph - N/A   Clear
11:55 AM 58.1 °F - 35.6 °F 43% 30.16 in 10.0 mi WNW 11.5 mph 16.1 mph N/A   Clear
12:15 PM 58.5 °F - 36.1 °F 43% 30.16 in 10.0 mi WNW 13.8 mph - N/A   Clear
12:35 PM 58.5 °F - 35.4 °F 42% 30.15 in 10.0 mi WNW 10.4 mph - N/A   Clear
12:55 PM 59.0 °F - 36.1 °F 42% 30.15 in 10.0 mi WNW 12.7 mph 16.1 mph N/A   Clear
1:15 PM 59.0 °F - 35.6 °F 42% 30.15 in 10.0 mi WNW 15.0 mph 19.6 mph N/A   Clear
1:35 PM 59.7 °F - 36.0 °F 41% 30.15 in 10.0 mi WNW 11.5 mph 17.3 mph N/A   Clear
1:55 PM 60.1 °F - 36.7 °F 42% 30.16 in 10.0 mi WNW 12.7 mph 16.1 mph N/A   Clear
2:15 PM 60.1 °F - 36.5 °F 41% 30.16 in 10.0 mi WNW 11.5 mph 16.1 mph N/A   Clear
2:35 PM 59.9 °F - 36.1 °F 41% 30.16 in 10.0 mi WNW 12.7 mph - N/A   Clear
2:55 PM 59.9 °F - 36.1 °F 41% 30.16 in 10.0 mi West 12.7 mph - N/A   Clear
3:15 PM 59.9 °F - 36.3 °F 41% 30.17 in 10.0 mi NW 13.8 mph 18.4 mph N/A   Clear
3:35 PM 59.4 °F - 36.7 °F 43% 30.17 in 10.0 mi WNW 11.5 mph 17.3 mph N/A   Clear
3:55 PM 58.8 °F - 37.0 °F 44% 30.18 in 10.0 mi NW 11.5 mph - N/A   Clear
4:15 PM 58.1 °F - 37.4 °F 46% 30.19 in 10.0 mi NW 11.5 mph - N/A   Clear
4:35 PM 56.5 °F - 37.6 °F 49% 30.19 in 10.0 mi NW 8.1 mph - N/A   Clear
4:55 PM 54.5 °F - 37.4 °F 52% 30.20 in 10.0 mi NNW 8.1 mph - N/A   Clear
5:15 PM 52.9 °F - 36.1 °F 53% 30.20 in 10.0 mi NNW 5.8 mph - N/A   Clear
5:35 PM 50.2 °F - 36.3 °F 59% 30.21 in 10.0 mi NNW 6.9 mph - N/A   Clear
5:55 PM 50.0 °F - 36.0 °F 59% 30.22 in 10.0 mi NNW 6.9 mph - N/A   Clear
6:15 PM 46.0 °F - 36.0 °F 68% 30.23 in 10.0 mi Calm Calm - N/A   Clear
6:35 PM 46.0 °F - 36.1 °F 68% 30.25 in 10.0 mi Calm Calm - N/A   Clear
6:55 PM 42.8 °F - 35.6 °F 76% 30.26 in 10.0 mi Calm Calm - N/A   Clear
7:15 PM 41.9 °F 40.0 °F 35.2 °F 77% 30.26 in 10.0 mi WNW 3.5 mph - N/A   Clear
7:35 PM 42.1 °F - 35.4 °F 77% 30.27 in 10.0 mi Calm Calm - N/A   Clear
8:35 PM 40.3 °F - 34.9 °F 81% 30.29 in 10.0 mi Calm Calm - N/A   Clear
8:55 PM 39.9 °F - 34.9 °F 82% 30.30 in 10.0 mi Calm Calm - N/A   Clear
9:15 PM 38.5 °F - 34.3 °F 85% 30.31 in 10.0 mi Calm Calm - N/A   Clear
9:35 PM 42.4 °F 38.1 °F 35.6 °F 77% 30.32 in 10.0 mi NNW 6.9 mph - N/A   Clear
9:55 PM 42.3 °F 37.9 °F 35.1 °F 76% 30.33 in 10.0 mi NNW 6.9 mph - N/A   Clear
10:15 PM 41.4 °F 38.4 °F 34.3 °F 76% 30.33 in 10.0 mi North 4.6 mph - N/A   Clear
10:35 PM 39.7 °F 37.6 °F 34.0 °F 80% 30.34 in 10.0 mi North 3.5 mph - N/A   Clear
10:55 PM 39.7 °F 37.6 °F 33.8 °F 79% 30.34 in 10.0 mi NNW 3.5 mph - N/A   Clear
11:15 PM 39.6 °F 37.4 °F 33.3 °F 78% 30.35 in 10.0 mi NNW 3.5 mph - N/A   Clear
11:35 PM 38.7 °F - 32.9 °F 80% 30.35 in 10.0 mi Calm Calm - N/A   Clear
11:55 PM 37.6 °F 35.1 °F 32.4 °F 81% 30.36 in 10.0 mi NNW 3.5 mph - N/A   Clear